TJREVERB

Last updated on Tue Jun 06 2023 00:02:07 GMT+0000 (Coordinated Universal Time)

1 55128U 98067UV 23156.54562096 .08840989 12390-4 64025-3 0 9990 2 55128 51.6114 3.0820 0010672 269.0826 90.8977 16.39786971 24893

Satellite not in orbit

TJREVERB